Location: Bednik
(45.3500°N, 16.3833°E)
Time: 16:33:47
(UTC+00:00)

Cosmos 1975 Rocket - Pass Details

Date: 08 August 2020
Orbit: 603 x 634 km, 82.5° (Epoch: 18 September)

Event Time Altitude Azimuth Distance (km) Brightness Sun altitude
Rises 23:37:11 0° 345° (NNW) 2,943 7.5 -28.3°
Reaches altitude 10° 23:39:30 10° 340° (NNW) 2,029 6.4 -28.2°
Enters shadow 23:42:25 35° 313° (NW) 1,038 4.4 -28.1°
